SWA314 KSAN-KSLC

Flight info

Callsign SWA314
Flight time 1h 24m
Altitude 36000
Route ZZOOO4 MTBAL CADEZ HAKMN/N0439F370 Q73 LAKRR MLF QWENN6
Aircraft B38M/M-SDE1FGHILORVWXY/HB1

Departure

Time 2026-04-23 03:17
Airport San Diego International Airport (KSAN)

Arrival

Time 2026-04-23 04:42
Airport Salt Lake City International Airport (KSLC)
Time Latitude Longitude Altitude Speed Heading
2026-04-23 02:41 32.73347 -117.20055 28 ft 0 kts 263°
2026-04-23 02:54 32.73347 -117.20050 28 ft 2 kts 263°
2026-04-23 02:54 32.73349 -117.20031 28 ft 2 kts 263°
2026-04-23 02:55 32.73350 -117.20012 29 ft 2 kts 316°
2026-04-23 02:55 32.73340 -117.20007 28 ft 0 kts 343°
2026-04-23 03:02 32.73344 -117.20008 28 ft 3 kts 343°
2026-04-23 03:02 32.73379 -117.19991 29 ft 10 kts 25°
2026-04-23 03:03 32.73430 -117.19963 29 ft 0 kts 25°
2026-04-23 03:04 32.73453 -117.19944 29 ft 10 kts 51°
2026-04-23 03:04 32.73463 -117.19834 30 ft 15 kts 102°
2026-04-23 03:04 32.73429 -117.19697 28 ft 19 kts 107°
2026-04-23 03:04 32.73390 -117.19539 30 ft 20 kts 105°
2026-04-23 03:05 32.73349 -117.19368 27 ft 17 kts 109°
2026-04-23 03:05 32.73334 -117.19300 28 ft 0 kts 107°
2026-04-23 03:05 32.73333 -117.19299 28 ft 0 kts 107°
2026-04-23 03:08 32.73326 -117.19269 29 ft 9 kts 105°
2026-04-23 03:09 32.73302 -117.19165 27 ft 15 kts 105°
2026-04-23 03:09 32.73272 -117.19045 29 ft 16 kts 107°
2026-04-23 03:09 32.73239 -117.18914 29 ft 17 kts 105°
2026-04-23 03:09 32.73207 -117.18773 34 ft 18 kts 106°
2026-04-23 03:10 32.73170 -117.18624 30 ft 20 kts 106°
2026-04-23 03:10 32.73128 -117.18451 28 ft 23 kts 105°
2026-04-23 03:10 32.73083 -117.18264 27 ft 21 kts 107°
2026-04-23 03:10 32.73043 -117.18102 27 ft 14 kts 105°
2026-04-23 03:11 32.73015 -117.17985 28 ft 16 kts 104°
2026-04-23 03:11 32.72981 -117.17853 26 ft 18 kts 108°
2026-04-23 03:11 32.72949 -117.17722 25 ft 7 kts 101°
2026-04-23 03:11 32.72949 -117.17704 24 ft 0 kts 77°
2026-04-23 03:16 32.72952 -117.17693 24 ft 7 kts 77°
2026-04-23 03:16 32.72982 -117.17608 27 ft 11 kts 40°
2026-04-23 03:16 32.73037 -117.17637 26 ft 2 kts 283°
2026-04-23 03:17 32.73060 -117.17738 30 ft 31 kts 285°
2026-04-23 03:17 32.73184 -117.18252 28 ft 104 kts 287°
2026-04-23 03:17 32.73446 -117.19345 34 ft 168 kts 287°
2026-04-23 03:17 32.73797 -117.20761 662 ft 183 kts 288°
2026-04-23 03:18 32.74134 -117.22220 1578 ft 187 kts 289°
2026-04-23 03:18 32.74525 -117.23691 2520 ft 195 kts 288°
2026-04-23 03:18 32.74915 -117.25342 3140 ft 220 kts 287°
2026-04-23 03:18 32.75348 -117.27163 4005 ft 228 kts 287°
2026-04-23 03:19 32.75774 -117.28949 5281 ft 226 kts 286°
2026-04-23 03:19 32.76215 -117.30779 6204 ft 235 kts 287°
2026-04-23 03:19 32.76513 -117.32711 7166 ft 239 kts 271°
2026-04-23 03:19 32.76085 -117.34625 8154 ft 246 kts 240°
2026-04-23 03:20 32.74823 -117.36028 9146 ft 258 kts 211°
2026-04-23 03:20 32.73030 -117.36481 10080 ft 275 kts 180°
2026-04-23 03:20 32.71192 -117.35700 10857 ft 293 kts 147°
2026-04-23 03:20 32.69795 -117.33888 11613 ft 303 kts 128°
2026-04-23 03:21 32.68461 -117.31915 12361 ft 310 kts 133°
2026-04-23 03:21 32.67048 -117.29952 13178 ft 314 kts 133°
2026-04-23 03:21 32.65610 -117.27969 13936 ft 320 kts 133°
2026-04-23 03:21 32.64153 -117.25942 14604 ft 327 kts 129°
2026-04-23 03:22 32.63089 -117.23480 14950 ft 348 kts 104°
2026-04-23 03:22 32.62766 -117.20566 15267 ft 365 kts 94°
2026-04-23 03:22 32.62507 -117.17531 15603 ft 382 kts 95°
2026-04-23 03:22 32.62213 -117.14310 16072 ft 394 kts 96°
2026-04-23 03:23 32.62130 -117.11061 16754 ft 395 kts 81°
2026-04-23 03:23 32.62810 -117.07940 17410 ft 397 kts 67°
2026-04-23 03:23 32.63766 -117.04839 18019 ft 403 kts 67°
2026-04-23 03:23 32.64752 -117.01713 18640 ft 407 kts 67°
2026-04-23 03:24 32.65765 -116.98552 19192 ft 411 kts 66°
2026-04-23 03:24 32.66528 -116.95259 19721 ft 418 kts 83°
2026-04-23 03:24 32.66675 -116.91803 20268 ft 423 kts 87°
2026-04-23 03:24 32.66790 -116.88291 20772 ft 427 kts 88°
2026-04-23 03:25 32.66859 -116.85906 21147 ft 430 kts 88°
2026-04-23 03:25 32.67047 -116.82346 21638 ft 434 kts 79°
2026-04-23 03:25 32.67932 -116.78942 22181 ft 432 kts 61°
2026-04-23 03:25 32.69565 -116.75965 22597 ft 430 kts 43°
2026-04-23 03:26 32.71797 -116.73667 23087 ft 421 kts 26°
2026-04-23 03:26 32.74345 -116.72082 23535 ft 420 kts 18°
2026-04-23 03:26 32.77016 -116.70627 23957 ft 424 kts 17°
2026-04-23 03:26 32.79722 -116.69228 24416 ft 425 kts 16°
2026-04-23 03:27 32.82453 -116.67851 24848 ft 428 kts 15°
2026-04-23 03:27 32.85210 -116.66481 25283 ft 430 kts 15°
2026-04-23 03:27 32.87982 -116.65116 25710 ft 433 kts 14°
2026-04-23 03:27 32.90782 -116.63739 26136 ft 436 kts 14°
2026-04-23 03:28 32.93594 -116.62357 26544 ft 439 kts 14°
2026-04-23 03:28 32.96426 -116.60964 26977 ft 442 kts 14°
2026-04-23 03:28 32.99275 -116.59564 27370 ft 445 kts 14°
2026-04-23 03:28 33.02130 -116.58100 27776 ft 449 kts 15°
2026-04-23 03:29 33.04994 -116.56599 28161 ft 451 kts 15°
2026-04-23 03:29 33.07878 -116.55094 28606 ft 453 kts 15°
2026-04-23 03:29 33.10781 -116.53577 28943 ft 457 kts 15°
2026-04-23 03:29 33.13705 -116.52053 29270 ft 460 kts 15°
2026-04-23 03:30 33.16646 -116.50519 29631 ft 462 kts 14°
2026-04-23 03:30 33.19600 -116.48974 29944 ft 465 kts 15°
2026-04-23 03:30 33.22572 -116.47421 30264 ft 467 kts 14°
2026-04-23 03:30 33.25563 -116.45856 30510 ft 471 kts 14°
2026-04-23 03:31 33.28529 -116.44303 30855 ft 471 kts 14°
2026-04-23 03:31 33.31543 -116.42722 31129 ft 474 kts 14°
2026-04-23 03:31 33.34575 -116.41133 31372 ft 476 kts 14°
2026-04-23 03:31 33.37600 -116.39455 31713 ft 484 kts 20°
2026-04-23 03:32 33.40373 -116.37016 31982 ft 505 kts 37°
2026-04-23 03:32 33.42655 -116.33737 32292 ft 520 kts 48°
2026-04-23 03:32 33.44770 -116.30218 32477 ft 523 kts 46°
2026-04-23 03:32 33.46915 -116.26679 32694 ft 526 kts 47°
2026-04-23 03:33 33.49055 -116.23117 32919 ft 529 kts 46°
2026-04-23 03:33 33.51204 -116.19520 33163 ft 530 kts 47°
2026-04-23 03:33 33.53360 -116.15916 33342 ft 534 kts 46°
2026-04-23 03:33 33.55524 -116.12294 33637 ft 535 kts 46°
2026-04-23 03:34 33.57667 -116.08703 33925 ft 537 kts 46°
2026-04-23 03:34 33.59860 -116.05066 34181 ft 535 kts 42°
2026-04-23 03:34 33.62375 -116.01906 34511 ft 518 kts 33°
2026-04-23 03:34 33.64988 -115.98908 34835 ft 520 kts 35°
2026-04-23 03:35 33.67596 -115.95889 34959 ft 520 kts 35°
2026-04-23 03:35 33.70208 -115.92878 34952 ft 519 kts 35°
2026-04-23 03:35 33.75406 -115.86887 34926 ft 518 kts 35°
2026-04-23 03:36 33.80607 -115.80884 34932 ft 518 kts 35°
2026-04-23 03:36 33.85815 -115.74861 34922 ft 519 kts 35°
2026-04-23 03:37 33.90979 -115.68877 34925 ft 518 kts 35°
2026-04-23 03:37 33.96175 -115.62847 34932 ft 517 kts 36°
2026-04-23 03:38 34.01320 -115.56862 34919 ft 512 kts 37°
2026-04-23 03:38 34.06439 -115.50903 34909 ft 512 kts 36°
2026-04-23 03:39 34.11563 -115.44924 34896 ft 512 kts 36°
2026-04-23 03:39 34.16685 -115.38938 34891 ft 512 kts 36°
2026-04-23 03:40 34.19402 -115.36243 34902 ft 499 kts 24°
2026-04-23 03:40 34.22426 -115.34402 34874 ft 475 kts
2026-04-23 03:40 34.25587 -115.33506 34940 ft 464 kts
2026-04-23 03:40 34.28762 -115.32769 34891 ft 465 kts
2026-04-23 03:41 34.35104 -115.31427 34899 ft 462 kts 359°
2026-04-23 03:41 34.41412 -115.30151 34898 ft 462 kts 359°
2026-04-23 03:42 34.47755 -115.28878 34906 ft 462 kts 359°
2026-04-23 03:42 34.54102 -115.27604 34910 ft 462 kts 359°
2026-04-23 03:43 34.60449 -115.26330 34912 ft 462 kts 359°
2026-04-23 03:43 34.66798 -115.25053 34908 ft 462 kts 359°
2026-04-23 03:44 34.73142 -115.23775 34919 ft 462 kts 359°
2026-04-23 03:44 34.79501 -115.22493 34935 ft 463 kts 359°
2026-04-23 03:45 34.85850 -115.21210 34931 ft 463 kts 359°
2026-04-23 03:45 34.92210 -115.19923 34942 ft 463 kts 359°
2026-04-23 03:46 34.98523 -115.18643 35000 ft 463 kts 359°
2026-04-23 03:46 35.04884 -115.17352 34954 ft 463 kts 359°
2026-04-23 03:47 35.11247 -115.16059 34961 ft 464 kts 359°
2026-04-23 03:47 35.17621 -115.14760 34961 ft 464 kts 359°
2026-04-23 03:48 35.23992 -115.13461 34995 ft 464 kts 359°
2026-04-23 03:48 35.30355 -115.12161 34969 ft 463 kts 359°
2026-04-23 03:49 35.36715 -115.10860 34956 ft 464 kts 359°
2026-04-23 03:49 35.43074 -115.09557 34964 ft 464 kts 359°
2026-04-23 03:50 35.49411 -115.07731 34971 ft 485 kts 15°
2026-04-23 03:50 35.52338 -115.05536 34962 ft 503 kts 32°
2026-04-23 03:50 35.54836 -115.02448 34983 ft 516 kts 42°
2026-04-23 03:51 35.59617 -114.95923 34939 ft 518 kts 40°
2026-04-23 03:51 35.64436 -114.89336 34954 ft 519 kts 41°
2026-04-23 03:52 35.69262 -114.82739 34943 ft 518 kts 40°
2026-04-23 03:52 35.74082 -114.76144 34903 ft 518 kts 41°
2026-04-23 03:53 35.78895 -114.69545 34911 ft 517 kts 41°
2026-04-23 03:53 35.83704 -114.62935 34836 ft 517 kts 41°
2026-04-23 03:54 35.88512 -114.56316 34867 ft 518 kts 41°
2026-04-23 03:54 35.93317 -114.49685 34851 ft 518 kts 41°
2026-04-23 03:55 35.98121 -114.43045 34827 ft 519 kts 41°
2026-04-23 03:55 36.02895 -114.36433 34824 ft 519 kts 41°
2026-04-23 03:56 36.07801 -114.29931 34810 ft 508 kts 30°
2026-04-23 03:56 36.10710 -114.27634 34863 ft 486 kts 15°
2026-04-23 03:56 36.13770 -114.25871 34806 ft 486 kts 14°
2026-04-23 03:57 36.19927 -114.22432 34838 ft 485 kts 13°
2026-04-23 03:57 36.26108 -114.19059 34828 ft 485 kts 13°
2026-04-23 03:58 36.32286 -114.15683 34817 ft 486 kts 14°
2026-04-23 03:58 36.38411 -114.12280 34845 ft 485 kts 12°
2026-04-23 03:59 36.44622 -114.08954 34835 ft 486 kts 13°
2026-04-23 03:59 36.50821 -114.05568 34854 ft 488 kts 13°
2026-04-23 04:00 36.57037 -114.02160 34858 ft 489 kts 13°
2026-04-23 04:00 36.63264 -113.98740 34889 ft 489 kts 13°
2026-04-23 04:01 36.69494 -113.95308 34876 ft 489 kts 13°
2026-04-23 04:01 36.75726 -113.91876 34856 ft 489 kts 13°
2026-04-23 04:02 36.81946 -113.88442 34860 ft 490 kts 13°
2026-04-23 04:02 36.88153 -113.85004 34922 ft 478 kts 13°
2026-04-23 04:03 36.94099 -113.81705 34902 ft 467 kts 12°
2026-04-23 04:03 37.00017 -113.78428 34925 ft 465 kts 12°
2026-04-23 04:04 37.05953 -113.75126 34883 ft 467 kts 12°
2026-04-23 04:04 37.11888 -113.71820 34950 ft 468 kts 12°
2026-04-23 04:05 37.17846 -113.68495 34925 ft 468 kts 12°
2026-04-23 04:05 37.23791 -113.65176 34915 ft 468 kts 12°
2026-04-23 04:06 37.29752 -113.61831 34868 ft 468 kts 12°
2026-04-23 04:06 37.35697 -113.58500 34907 ft 469 kts 12°
2026-04-23 04:07 37.41656 -113.55151 34914 ft 469 kts 13°
2026-04-23 04:07 37.47614 -113.51800 34883 ft 468 kts 13°
2026-04-23 04:08 37.53572 -113.48439 34922 ft 470 kts 13°
2026-04-23 04:08 37.59531 -113.45070 34897 ft 469 kts 13°
2026-04-23 04:09 37.62514 -113.43385 35013 ft 470 kts 13°
2026-04-23 04:09 37.65463 -113.41716 35001 ft 471 kts 13°
2026-04-23 04:09 37.71420 -113.38339 34971 ft 469 kts 13°
2026-04-23 04:10 37.77376 -113.34957 34990 ft 470 kts 13°
2026-04-23 04:10 37.83340 -113.31565 34991 ft 470 kts 13°
2026-04-23 04:11 37.89307 -113.28164 35012 ft 470 kts 13°
2026-04-23 04:11 37.95277 -113.24756 34964 ft 470 kts 13°
2026-04-23 04:12 38.00239 -113.21918 34928 ft 471 kts 13°
2026-04-23 04:12 38.06215 -113.18496 34934 ft 471 kts 13°
2026-04-23 04:13 38.12190 -113.15067 34976 ft 471 kts 14°
2026-04-23 04:13 38.18160 -113.11636 34975 ft 471 kts 14°
2026-04-23 04:14 38.24136 -113.08196 34996 ft 472 kts 14°
2026-04-23 04:14 38.30115 -113.04748 35030 ft 471 kts 14°
2026-04-23 04:15 38.36091 -113.01297 35040 ft 471 kts 14°
2026-04-23 04:16 38.45069 -112.96172 35029 ft 471 kts 14°
2026-04-23 04:16 38.51016 -112.92776 35025 ft 471 kts 14°
2026-04-23 04:17 38.57042 -112.89333 35009 ft 471 kts 14°
2026-04-23 04:17 38.62997 -112.85958 35001 ft 471 kts 14°
2026-04-23 04:18 38.69016 -112.82634 34939 ft 470 kts 14°
2026-04-23 04:18 38.75042 -112.79303 34941 ft 470 kts 13°
2026-04-23 04:18 38.78051 -112.77865 34546 ft 460 kts
2026-04-23 04:19 38.81071 -112.76445 33970 ft 462 kts 10°
2026-04-23 04:19 38.84028 -112.75003 33515 ft 459 kts 10°
2026-04-23 04:19 38.86999 -112.73530 33042 ft 457 kts 11°
2026-04-23 04:19 38.89957 -112.72046 32544 ft 454 kts 11°
2026-04-23 04:20 38.92892 -112.70567 32081 ft 451 kts 11°
2026-04-23 04:20 38.95804 -112.69097 31639 ft 448 kts 11°
2026-04-23 04:20 38.98697 -112.67636 31196 ft 445 kts 11°
2026-04-23 04:20 39.01570 -112.66182 30763 ft 443 kts 11°
2026-04-23 04:21 39.04427 -112.64736 30340 ft 440 kts 11°
2026-04-23 04:21 39.07270 -112.63295 29910 ft 437 kts 11°
2026-04-23 04:21 39.10095 -112.61862 29473 ft 435 kts 11°
2026-04-23 04:21 39.12900 -112.60438 28987 ft 433 kts 11°
2026-04-23 04:22 39.15691 -112.59020 28566 ft 429 kts 11°
2026-04-23 04:22 39.18464 -112.57611 28137 ft 426 kts 11°
2026-04-23 04:22 39.21215 -112.56211 27720 ft 423 kts 11°
2026-04-23 04:22 39.23952 -112.54817 27309 ft 420 kts 11°
2026-04-23 04:23 39.26662 -112.53436 26978 ft 416 kts 11°
2026-04-23 04:23 39.29318 -112.52082 26932 ft 417 kts 11°
2026-04-23 04:23 39.32051 -112.50687 26959 ft 418 kts 11°
2026-04-23 04:23 39.34753 -112.49306 26986 ft 417 kts 12°
2026-04-23 04:24 39.37414 -112.47945 26960 ft 416 kts 12°
2026-04-23 04:24 39.40102 -112.46569 26961 ft 416 kts 12°
2026-04-23 04:24 39.42778 -112.45198 26840 ft 411 kts 11°
2026-04-23 04:24 39.45443 -112.43832 26315 ft 412 kts 12°
2026-04-23 04:25 39.48097 -112.42470 25977 ft 408 kts 12°
2026-04-23 04:25 39.50728 -112.41119 25584 ft 406 kts 12°
2026-04-23 04:25 39.53353 -112.39770 25229 ft 403 kts 12°
2026-04-23 04:25 39.55955 -112.38432 24908 ft 401 kts 13°
2026-04-23 04:26 39.58535 -112.37104 24644 ft 395 kts 13°
2026-04-23 04:26 39.61064 -112.35800 24418 ft 389 kts 13°
2026-04-23 04:26 39.63568 -112.34509 24075 ft 386 kts 14°
2026-04-23 04:26 39.66054 -112.33227 23757 ft 383 kts 14°
2026-04-23 04:27 39.68523 -112.31952 23409 ft 380 kts 14°
2026-04-23 04:27 39.70969 -112.30687 23026 ft 377 kts 14°
2026-04-23 04:27 39.73404 -112.29428 22641 ft 375 kts 14°
2026-04-23 04:28 39.78209 -112.26940 21903 ft 369 kts 15°
2026-04-23 04:28 39.80590 -112.25709 21574 ft 365 kts 17°
2026-04-23 04:28 39.82927 -112.24495 21372 ft 357 kts 17°
2026-04-23 04:28 39.85230 -112.23300 20880 ft 358 kts 17°
2026-04-23 04:29 39.87575 -112.22081 20151 ft 367 kts 17°
2026-04-23 04:29 39.89961 -112.20840 19425 ft 375 kts 18°
2026-04-23 04:29 39.92420 -112.19561 18702 ft 383 kts 18°
2026-04-23 04:29 39.94912 -112.18264 17932 ft 390 kts 18°
2026-04-23 04:30 39.97453 -112.16941 17108 ft 396 kts 18°
2026-04-23 04:30 40.00017 -112.15603 16545 ft 396 kts 18°
2026-04-23 04:30 40.02531 -112.14290 16134 ft 391 kts 19°
2026-04-23 04:30 40.05033 -112.12981 15707 ft 380 kts 19°
2026-04-23 04:31 40.07429 -112.11731 15349 ft 362 kts 18°
2026-04-23 04:31 40.09713 -112.10536 14996 ft 347 kts 18°
2026-04-23 04:31 40.11914 -112.09385 14651 ft 334 kts 18°
2026-04-23 04:31 40.14034 -112.08274 14322 ft 322 kts 17°
2026-04-23 04:32 40.16080 -112.07201 14011 ft 315 kts 17°
2026-04-23 04:32 40.18103 -112.06140 13698 ft 313 kts 17°
2026-04-23 04:32 40.20121 -112.05081 13344 ft 311 kts 17°
2026-04-23 04:32 40.22115 -112.04033 13021 ft 308 kts 18°
2026-04-23 04:33 40.24097 -112.02992 12710 ft 305 kts 17°
2026-04-23 04:33 40.26058 -112.01960 12415 ft 302 kts 18°
2026-04-23 04:33 40.28004 -112.00938 12081 ft 300 kts 18°
2026-04-23 04:33 40.29931 -111.99923 11779 ft 297 kts 17°
2026-04-23 04:34 40.31844 -111.98915 11488 ft 295 kts 18°
2026-04-23 04:34 40.33731 -111.97920 11264 ft 290 kts 18°
2026-04-23 04:34 40.35574 -111.96947 11119 ft 281 kts 18°
2026-04-23 04:34 40.37338 -111.96017 11041 ft 274 kts 18°
2026-04-23 04:35 40.39152 -111.95309 10878 ft 265 kts 359°
2026-04-23 04:35 40.40970 -111.95425 10654 ft 261 kts 352°
2026-04-23 04:35 40.42781 -111.95599 10410 ft 261 kts 352°
2026-04-23 04:35 40.44555 -111.95779 10152 ft 257 kts 352°
2026-04-23 04:36 40.46308 -111.95964 9983 ft 249 kts 352°
2026-04-23 04:36 40.48014 -111.96147 9724 ft 244 kts 350°
2026-04-23 04:36 40.49695 -111.96333 9439 ft 240 kts 350°
2026-04-23 04:36 40.51341 -111.96520 9202 ft 235 kts 350°
2026-04-23 04:37 40.52951 -111.96706 8958 ft 230 kts 349°
2026-04-23 04:37 40.54529 -111.96885 8677 ft 225 kts 348°
2026-04-23 04:37 40.56063 -111.97065 8412 ft 218 kts 351°
2026-04-23 04:37 40.57551 -111.97236 8153 ft 211 kts 349°
2026-04-23 04:38 40.58991 -111.97402 7892 ft 205 kts 349°
2026-04-23 04:38 40.60389 -111.97565 7637 ft 199 kts 349°
2026-04-23 04:38 40.61737 -111.97718 7412 ft 187 kts 351°
2026-04-23 04:38 40.62958 -111.97860 7176 ft 166 kts 351°
2026-04-23 04:39 40.64104 -111.97994 6964 ft 165 kts 351°
2026-04-23 04:39 40.65256 -111.98128 6729 ft 167 kts 351°
2026-04-23 04:39 40.66414 -111.98268 6495 ft 167 kts 352°
2026-04-23 04:39 40.67574 -111.98398 6267 ft 167 kts 352°
2026-04-23 04:40 40.68732 -111.98528 6070 ft 167 kts 352°
2026-04-23 04:40 40.69872 -111.98664 5869 ft 163 kts 352°
2026-04-23 04:40 40.70995 -111.98792 5657 ft 161 kts 352°
2026-04-23 04:40 40.72098 -111.98924 5415 ft 157 kts 353°
2026-04-23 04:41 40.73182 -111.99052 5160 ft 156 kts 355°
2026-04-23 04:41 40.74254 -111.99172 4931 ft 153 kts 354°
2026-04-23 04:41 40.75296 -111.99309 4698 ft 150 kts 356°
2026-04-23 04:41 40.76365 -111.99395 4518 ft 154 kts 353°
2026-04-23 04:42 40.77441 -111.99546 4334 ft 156 kts 355°
2026-04-23 04:42 40.78421 -111.99659 4229 ft 97 kts 355°
2026-04-23 04:42 40.78667 -111.99685 4237 ft 14 kts 356°
2026-04-23 04:42 40.78764 -111.99685 4235 ft 1 kts 28°
2026-04-23 04:43 40.78774 -111.99670 4234 ft 5 kts 53°
2026-04-23 04:43 40.78775 -111.99635 4236 ft 4 kts 107°
2026-04-23 04:43 40.78761 -111.99601 4236 ft 6 kts 127°
2026-04-23 04:43 40.78712 -111.99530 4237 ft 15 kts 138°
2026-04-23 04:44 40.78648 -111.99404 4234 ft 18 kts 91°
2026-04-23 04:44 40.78641 -111.99251 4236 ft 12 kts 122°
2026-04-23 04:44 40.78602 -111.99227 4236 ft 6 kts 165°
2026-04-23 04:44 40.78575 -111.99214 4235 ft 1 kts 161°
2026-04-23 04:45 40.78574 -111.99214 4235 ft 0 kts 161°